User: anonymous   Login
Location: Ripley
(48.3812°N, 115.4473°W)
Time: 07:54:08
(UTC+00:00)
Language:

RS-15 - Orbit

View from above orbital plane
View from above orbital plane
View from above satellite
View from above satellite

Ground track
Ground track

The orbit data is extracted from the following two-line orbital elements,

1 23439U 94085A   22177.97542233 -.00000039  00000-0  10000-3 0  9998
2 23439  64.8155 130.2141 0168155 270.8923  87.2738 11.27572704132569
Epoch (UTC): 26 June 2022 23:24:36
Eccentricity: 0.0168155
inclination: 64.8155°
perigee height: 1881 km
apogee height: 2163 km
right ascension of ascending node: 130.2141°
argument of perigee: 270.8923°
revolutions per day: 11.27572704
mean anomaly at epoch: 87.2738°
orbit number at epoch: 13256

The dashed part of the orbit path shows where the satellite is in the earth's shadow,  

DLR